Regional Weather Roundup
Issued by NWS

Home | Current Version | Previous Version | Text Only | Print | Product List | Glossary Off
Versions: 1 2 3 4 5 6 7 8 9 10 11 12 13 14 15 16 17 18 19 20 21 22 23 24 25 26 27 28 29 30 31 32 33 34 35 36 37 38 39 40 41 42 43 44 45 46 47 48 49

000
ASUS43 KDMX 301607
RWRIA

WEATHER ROUNDUP FOR IOWA
NATIONAL WEATHER SERVICE DES MOINES IA
1100 AM CDT WED JUL 30 2014

NOTE: "FAIR" INDICATES FEW OR NO CLOUDS BELOW 12,000 FEET WITH NO
SIGNIFICANT WEATHER AND/OR OBSTRUCTIONS TO VISIBILITY.

* - THESE STATIONS ARE NOT NWS STATIONS...THUS NOT UNDER NWS
QUALITY CONTROL.  THEY ALSO DO NOT REPORT WEATHER SUCH
AS PRECIPITATION OR FOG.

IAZ001>003-012>014-020>022-031>034-043>046-301700-
   NORTHWEST IOWA

CITY           SKY/WX    TMP DP  RH WIND       PRES   REMARKS
CARROLL *      SUNNY     73  57  56 VRB6      30.15R
CHEROKEE *     SUNNY     72  59  63 N5        30.16S
DENISON *      SUNNY     72  57  60 VRB5      30.14S
LE MARS *      SUNNY     73  57  56 N5        30.17S
ORANGE CITY *  SUNNY     73  55  53 N7        30.17S
SHELDON *      SUNNY     72  57  60 VRB5      30.16R
SIOUX CITY     SUNNY     75  57  53 CALM      30.16S
SPENCER        SUNNY     74  57  55 N8        30.16S
STORM LAKE *   SUNNY     72  59  64 VRB6      30.17S
$$

IAZ055>058-069>071-079>083-090>094-301700-
   SOUTHWEST IOWA

CITY           SKY/WX    TMP DP  RH WIND       PRES   REMARKS
ATLANTIC *     SUNNY     73  59  60 CALM      30.15R
AUDUBON *      SUNNY     77  61  57 NE7       30.16S
CLARINDA *     SUNNY     75  57  53 VRB6      30.16S
COUNCIL BLFS * SUNNY     73  57  56 NE6       30.15S
CRESTON *      MOSUNNY   73  55  53 N8        30.15R
HARLAN  *        N/A     73  59  60 N8        30.19R
LAMONI         SUNNY     74  57  55 N5        30.14R
RED OAK *      SUNNY     75  57  53 N8        30.15S
SHENANDOAH *   SUNNY     75  57  53 N7        30.16R
$$

IAZ047>049-059>061-072>074-084-301700-
   CENTRAL IOWA

CITY           SKY/WX    TMP DP  RH WIND       PRES   REMARKS
AMES           SUNNY     75  59  57 N9        30.13S
ANKENY *       SUNNY     75  57  53 N6        30.13R
CHARITON *     SUNNY     73  59  60 N9        30.13S
DES MOINES     MOSUNNY   77  56  48 VRB6      30.13R
GRINNELL*      MOSUNNY   72  60  67 NW3       30.13R
KNOXVILLE *    SUNNY     73  57  56 N7        30.12R
MARSHALLTOWN   SUNNY     73  61  65 NW6       30.11S
PELLA *        SUNNY     75  60  59 N5        30.13S
PERRY *          N/A     72  59  63 N3        30.14S
$$

IAZ004>006-015-016-023>025-035-036-301700-
   NORTH CENTRAL IOWA

CITY           SKY/WX    TMP DP  RH WIND       PRES   REMARKS
ALGONA *       SUNNY     72  61  68 N7        30.14S
CLARION *      SUNNY     73  59  60 N6        30.13S
ESTHERVILLE    SUNNY     72  58  61 N8        30.15S
FORT DODGE *   SUNNY     73  59  60 NW3       30.15S
MASON CITY     SUNNY     74  59  59 N7        30.14R
FOREST CITY *    N/A     72  59  64 N8        30.13S
IOWA FALLS *     N/A     74  57  54 NW7       30.13S
$$

IAZ007>011-017>019-026>030-037>042-050>054-066-301700-
   NORTHEAST IOWA

CITY           SKY/WX    TMP DP  RH WIND       PRES   REMARKS
CEDAR RAPIDS   SUNNY     73  58  59 NW6       30.09S
CHARLES CITY * SUNNY     72  59  64 NW7       30.12S
CLINTON *      SUNNY     73  61  64 N7        30.11S
DECORAH *      SUNNY    N/A N/A N/A N6        30.09S
DUBUQUE        SUNNY     71  59  65 CALM      30.09S
MONTICELLO *   SUNNY     73  61  64 VRB5      30.09S
OELWEIN *      SUNNY     72  61  68 N7        30.11S
WATERLOO       SUNNY     73  58  59 N9        30.09S
$$

IAZ064-065-067-068-078-301700-
   EAST CENTRAL IOWA

CITY           SKY/WX    TMP DP  RH WIND       PRES   REMARKS
DAVENPORT      SUNNY     73  60  63 VRB3      30.09S
IOWA CITY      SUNNY     74  60  61 N8        30.11R
MT. PLEASANT * SUNNY     75  58  54 W6        30.11R
MUSCATINE *    MOSUNNY   75  59  57 W9        30.09S
QUAD CITIES    SUNNY     75  59  57 W6        30.08S
$$

IAZ062-063-075>077-085>089-095>099-301700-
   SOUTHEAST IOWA

CITY           SKY/WX    TMP DP  RH WIND       PRES   REMARKS
BURLINGTON     SUNNY     75  60  59 NW9       30.10R
FAIRFIELD *    SUNNY     73  59  60 NW8       30.11S
FORT MADISON * SUNNY     75  61  60 NW5       30.11S
KEOKUK *       SUNNY     75  61  60 NW5       30.10S
OSKALOOSA *      N/A     73  61  65 N7        30.12S
CENTERVILLE *    N/A     75  59  57 NW6       30.14S
OTTUMWA        SUNNY     74  60  61 NW6       30.10S
WASHINGTON *   SUNNY     73  61  64 W7        30.11R
$$

ABBREVIATIONS USED IN REMARKS
   TC - TEMPERATURES IN CELSIUS
  WCI - WIND CHILL INDEX
   HX - HEAT INDEX
  VSB - VISIBILITY
$$




USA.gov is the U.S. government's official web portal to all federal, state and local government web resources and services.